WetterOnline ( http://www.wetteronline.de )

Wetter aktuell Emden

Aktuelles Wetter: Emden (5m)

6-stündlich | Neueste Meldungen
Ortszeit Temperatur Wetter
Di, 25.09. 14:00 15.2° C bewölkt
Di, 25.09. 8:00 8.0° C Sprühregen
Di, 25.09. 2:00 7.1° C wolkig
Mo, 24.09. 20:00 10.6° C leichter Regen
Mo, 24.09. 14:00 14.7° C wolkig
Mo, 24.09. 8:00 9.7° C bewölkt
Mo, 24.09. 2:00 10.1° C leichter Regen
So, 23.09. 20:00 11.0° C bedeckt
Ortszeit Temperatur Wetter
Di, 25.09. 17:00 14.2° C bedeckt
Di, 25.09. 16:50 14.2° C bedeckt
Di, 25.09. 16:40 15.1° C bedeckt
Di, 25.09. 16:30 14.8° C wolkig
Di, 25.09. 16:20 14.8° C wolkig
Di, 25.09. 16:10 14.7° C bewölkt
Di, 25.09. 16:00 15.3° C bewölkt
Di, 25.09. 15:30 14.0° C bewölkt
Di, 25.09. 15:00 14.1° C wolkig
Di, 25.09. 14:30 15.1° C wolkig
Di, 25.09. 14:00 15.2° C bewölkt
Ortszeit Relative Feuchte Sichtweite
Di, 25.09. 14:00 57% >70 km
Di, 25.09. 8:00 95% 30 km
Di, 25.09. 2:00 91% 55 km
Mo, 24.09. 20:00 67% 50 km
Mo, 24.09. 14:00 62% 50 km
Mo, 24.09. 8:00 76% 28 km
Mo, 24.09. 2:00 71% 21 km
So, 23.09. 20:00 68% 60 km
Ortszeit Relative Feuchte Sichtweite
Di, 25.09. 17:00 57% 60 km
Di, 25.09. 16:50 57% -
Di, 25.09. 16:40 55% -
Di, 25.09. 16:30 57% 60 km
Di, 25.09. 16:20 57% -
Di, 25.09. 16:10 59% -
Di, 25.09. 16:00 58% 65 km
Di, 25.09. 15:30 65% 60 km
Di, 25.09. 15:00 62% 60 km
Di, 25.09. 14:30 56% 55 km
Di, 25.09. 14:00 57% >70 km
Ortszeit Niederschlagsmenge Niederschlagsart
Di, 25.09. 14:00 0.1 l/m2 in 6 Std. Regen
Di, 25.09. 8:00 4 l/m2 in 12 Std. Regen
Di, 25.09. 2:00 3 l/m2 in 6 Std. Regen
Mo, 24.09. 20:00 0.5 l/m2 in 12 Std. Regen
Mo, 24.09. 14:00 0.4 l/m2 in 6 Std. Regen
Mo, 24.09. 8:00 2 l/m2 in 12 Std. Regen
Mo, 24.09. 2:00 0.7 l/m2 in 6 Std. Regen
So, 23.09. 20:00 1 l/m2 in 12 Std. Regen
Ortszeit Niederschlagsmenge Niederschlagsart
Di, 25.09. 17:00 0.0 l/m2 in 1 Std. -
Di, 25.09. 16:50 keine Meldung -
Di, 25.09. 16:40 keine Meldung -
Di, 25.09. 16:30 0.0 l/m2 in 1 Std. -
Di, 25.09. 16:20 keine Meldung -
Di, 25.09. 16:10 keine Meldung -
Di, 25.09. 16:00 0.0 l/m2 in 1 Std. -
Di, 25.09. 15:30 0.0 l/m2 in 1 Std. -
Di, 25.09. 15:00 0.0 l/m2 in 1 Std. -
Di, 25.09. 14:30 0.0 l/m2 in 1 Std. -
Di, 25.09. 14:00 0.0 l/m2 in 1 Std. Regen
Ortszeit Stärke Spitze Richtung
km/h Bft. km/h Grad Sektor
Di, 25.09. 14:00 11 2 22 230° SW
Di, 25.09. 8:00 6 1 26 270° W
Di, 25.09. 2:00 6 1 33 240° SW
Mo, 24.09. 20:00 11 2 57 310° NW
Mo, 24.09. 14:00 29 5 61 290° W
Mo, 24.09. 8:00 22 4 54 280° W
Mo, 24.09. 2:00 25 4 58 320° NW
So, 23.09. 20:00 22 4 41 300° NW
Ortszeit Stärke Spitze Richtung
km/h Bft. km/h Grad Sektor
Di, 25.09. 17:00 7 2 18 250° W
Di, 25.09. 16:50 7 2 - 250° W
Di, 25.09. 16:40 4 1 - 270° W
Di, 25.09. 16:30 7 2 19 250° W
Di, 25.09. 16:20 7 2 - 250° W
Di, 25.09. 16:10 13 3 - 270° W
Di, 25.09. 16:00 6 1 22 290° W
Di, 25.09. 15:30 9 2 22 270° W
Di, 25.09. 15:00 14 3 25 260° W
Di, 25.09. 14:30 9 2 17 280° W
Di, 25.09. 14:00 11 2 22 230° SW
Ortszeit Untergrenze Bedeckung Gattung
total tief tief mittel hoch
Di, 25.09. 14:00 1050 m 8/8 4/8 - - -
Di, 25.09. 8:00 810 m 7/8 7/8 - - -
Di, 25.09. 2:00 1290 m 8/8 3/8 - - -
Mo, 24.09. 20:00 1200 m 6/8 6/8 - - -
Mo, 24.09. 14:00 1140 m 6/8 6/8 - - -
Mo, 24.09. 8:00 1260 m 7/8 7/8 - - -
Mo, 24.09. 2:00 1170 m 5/8 5/8 - - -
So, 23.09. 20:00 1260 m 8/8 8/8 - - -
Ortszeit Bedeckungsgrad in Achtel und Wolkenuntergrenze
Di, 25.09. 17:00 8
Di, 25.09. 16:50 9 9 9
Di, 25.09. 16:40 9 9 9
Di, 25.09. 16:30 1(1170m) 6(1800m) 6(12000m)
Di, 25.09. 16:20 1(1170m) 6(1800m) 6(12000m)
Di, 25.09. 16:10 1(1140m) 1(1440m) 7(1800m)
Di, 25.09. 16:00 1(1020m) 7(1800m) 7(1800m)
Di, 25.09. 15:30 7(1800m) 7(4500m)
Di, 25.09. 15:00 2(1200m) 6(4500m) 6(10500m)
Di, 25.09. 14:30 2(1110m) 7(4500m) 8(10500m)
Di, 25.09. 14:00 3(1050m) 4(1800m) 8(4500m)
Ortszeit Luftdruck NN (hPa) Tendenz (hPa in 3 Std.)
Di, 25.09. 14:00 1039 + 0,1
Di, 25.09. 8:00 1037 + 0,8
Di, 25.09. 2:00 1036 + 1,0
Mo, 24.09. 20:00 1033 + 1,5
Mo, 24.09. 14:00 1030 + 1,6
Mo, 24.09. 8:00 1026 + 2,2
Mo, 24.09. 2:00 1022 + 3,2
So, 23.09. 20:00 1015 + 2,6
Ortszeit Luftdruck NN (hPa) Tendenz (hPa in 3 Std.)
Di, 25.09. 17:00 1037 - 1,2
Di, 25.09. 16:50 1037 keine Meldung
Di, 25.09. 16:40 1037 keine Meldung
Di, 25.09. 16:30 1038 - 1,3
Di, 25.09. 16:20 1038 keine Meldung
Di, 25.09. 16:10 1038 keine Meldung
Di, 25.09. 16:00 1038 - 1,1
Di, 25.09. 15:30 1038 - 0,9
Di, 25.09. 15:00 1038 - 0,6
Di, 25.09. 14:30 1038 - 0,4
Di, 25.09. 14:00 1039 + 0,1
Ortszeit Schneehöhe (cm)
Di, 25.09. 14:00 -
Di, 25.09. 8:00 -
Di, 25.09. 2:00 -
Mo, 24.09. 20:00 -
Mo, 24.09. 14:00 -
Mo, 24.09. 8:00 -
Mo, 24.09. 2:00 -
So, 23.09. 20:00 -
Ortszeit Schneehöhe (cm)
Di, 25.09. 17:00 -
Di, 25.09. 16:50 -
Di, 25.09. 16:40 -
Di, 25.09. 16:30 -
Di, 25.09. 16:20 -
Di, 25.09. 16:10 -
Di, 25.09. 16:00 -
Di, 25.09. 15:30 -
Di, 25.09. 15:00 -
Di, 25.09. 14:30 -
Di, 25.09. 14:00 -
Link zu dieser Seite / Seite empfehlen

Das Wetter in ...